www.pogodaiklimat.ru
ПОГОДА в Сан-Педро-Суле
Время
(UTC), дата
21 21.02
00 22.02
03 22.02
06 22.02
09 22.02
12 22.02
15 22.02
18 22.02
21 22.02
00 23.02
03 23.02
06 23.02
09 23.02
12 23.02
15 23.02
18 23.02
21 23.02
00 24.02
03 24.02
06 24.02
09 24.02
12 24.02
15 24.02
18 24.02
21 24.02
00 25.02
03 25.02
06 25.02
09 25.02
12 25.02
15 25.02
18 25.02
21 25.02
00 26.02
03 26.02
06 26.02
09 26.02
12 26.02
21 26.02
00 27.02
03 27.02
06 27.02
12 27.02
15 27.02
00 28.02
03 28.02
06 28.02
09 28.02
12 28.02
15 28.02
Ветер
(напр.,м/с)
Видим. Явления Облачность Т
(С)
Тd
(С)
f
(%)
Тe
(С)
Тes
(С)
Комфортность P
(гПа)
Po
(гПа)
Тmin
(С)
Tmax
(С)
R
(мм)
R24
(мм)
S
(см)
С 5 10 км мгла {туман} 5/3 840 м
[Cu hum Ac trans]
+29.0 +20.9 62 +36 +39 очень
душно
1016.5 1013.5
С 4 10 км мгла {туман} 5/5 840 м
[Cu hum Ac trans]
+26.9 +20.3 67 +33 +33 очень
душно
1018.0 1015.8 +23.6 +30.8 5.6
С 2 15 км мгла {туман} 3/1 750 м
[Sc Ac trans]
+24.3 +22.8 91 +32 +32 очень
душно
1020.2 1017.1
СЗ 2 10 км мгла {туман} 3/3 750 м
[Sc]
+22.8 +21.7 94 +31 +31 очень
душно
1019.8 1016.7 +22.8 +30.8
ЮЗ 2 8000 м дымка {туман} 1/1 750 м
[Sc]
+20.7 +20.7 100 +26 +26 душно 1018.4 1015.4
З 3 10 км мгла {туман} 9/4 750 м
[Sc Ac As]
+21.3 +19.8 91 +26 +26 душно 1019.0 1015.9 +20.7 +30.8
ЮЗ 2 12 км мгла {туман} 4/3 600 м
[Cu Sc As op Cs]
+25.8 +19.8 69 +31 +37 очень
душно
1020.4 1017.2
СВ 3 12 км осадки на расстоянии {ливн. осадки, туман} 9/4 720 м
[Cu med, cong Ac As]
+25.8 +22.4 82 +34 +38 очень
душно
1019.8 1016.7 +20.7 +28.1 5
С 6 10 км осадки на расстоянии {ливн. осадки} 9/5 180 м
[Cu med, cong Ac As]
+25.2 +23.1 88 +34 +34 очень
душно
1017.4 1014.3 6
С 3 3000 м слаб. дождь {туман} 9/5 120 м
[Cu med, cong Ac As]
+22.8 +22.5 98 +31 +31 очень
душно
1018.0 1014.8 +20.7 +28.1 5 15.2
С 2 10 км в посл. час дождь {туман} 9/9 720 м
[Sc diur, vesp Ac und Cs]
+22.8 +21.5 92 +30 +30 очень
душно
1019.8 1016.8 5
штиль 0 10 км в посл. час дождь {туман} 9/4 800 м
[Sc Ac As]
+22.5 +21.5 94 +30 +30 очень
душно
1019.0 1016.0 +20.7 +28.1 2
СВ 4 10 км слаб. дождь {туман} 9/9 720 м
[Sc diur, vesp Ac und Cs]
+21.8 +20.8 94 +28 +28 душно 1017.1 1014.1 20
штиль 0 10 км осадки на расстоянии {туман} 10/4 660 м
[Sc diur, vesp As op]
+21.9 +21.0 95 +28 +28 душно 1017.4 1014.4 +21.5 +28.1 2 11.6
С 3 10 км осадки на расстоянии {туман} 9/9 600 м
[Sc diur, vesp Ac und Cs]
+23.4 +21.2 87 +31 +33 очень
душно
1019.5 1016.3
СЗ 4 2000 м в посл. час дождь {туман} 9/4 750 м
[Sc diur, vesp Ac cuf]
+23.7 +21.4 87 +30 +34 очень
душно
1018.6 1015.4 +21.5 +23.7 2
С 4 10 км мгла {туман} 3/3 600 м
[Cu Sc As op Cs]
+27.2 +20.4 66 +34 +37 очень
душно
1015.3 1012.1
С 3 10 км мгла {туман} 3/3 840 м
[Sc Ac trans]
+24.8 +19.3 71 +30 +30 душно 1015.6 1012.4 +21.5 +27.2 6.2
СЗ 2 10 км мгла {туман} 1/1 800 м
[Sc]
+21.8 +18.6 82 +27 +27 душно 1017.1 1014.0
ЮЗ 2 10 км мгла {туман} 1/1 750 м
[Sc]
+19.6 +18.5 93 +23 +23 комфорт 1016.6 1013.5 +22.5 +27.2
З 2 10 км мгла {туман} ясно +18.3 +18.0 98 +20 +20 1014.5 1011.4
З 2 10 км мгла {туман} ясно +17.9 +17.7 99 +18 +18 1015.0 1011.9 +17.4 +27.2
ЮЗ 4 15 км мгла {туман} 1/1 750 м
[Cu hum]
+22.7 +18.7 78 +28 +35 душно 1016.4 1013.3
СЗ 2 15 км мгла {туман} 1/1 900 м
[Cu hum]
+28.6 +18.0 53 +33 +50 очень
душно
1013.5 1010.4 +17.4 +28.6
СВ 3 15 км мгла {туман} 1/1 900 м
[Cu hum]
+30.8 +17.8 46 +35 +41 очень
душно
1009.0 1005.9
С 4 15 км мгла {туман} ясно +26.4 +20.2 69 +33 +33 очень
душно
1008.2 1005.3 +17.4 +30.8
ЮЗ 3 10 км мгла {туман} ясно +23.7 +18.4 72 +28 +28 душно 1010.6 1007.4
штиль 0 10 км мгла {туман} ясно +20.9 +19.0 89 +25 +25 комфорт 1010.9 1007.7 +17.4 +30.8
ЮЗ 3 20 км мгла {туман} ясно +20.7 +19.0 90 +25 +25 комфорт 1009.9 1006.7
ЮЗ 3 10 км мгла {туман} ясно +20.3 +16.8 80 +24 +24 комфорт 1010.2 1007.0 +20.3 +30.8
ЮЗ 5 10 км мгла {туман} 5/1 800 м
[Cu hum Ci fib]
+28.0 +19.7 61 +34 +38 очень
душно
1012.0 1009.0
ЮЗ 5 10 км мгла {туман} 6/1 840 м
[Cu hum Ci fib]
+32.9 +19.0 44 +38 +46 очень
душно
1010.2 1007.2 +20.2 +32.9
Ю 2 10 км мгла {туман} 9/1 800 м
[Cu hum Cs]
+35.0 +18.0 37 +39 +45 очень
душно
1006.7 1003.7
С 7 10 км мгла {туман} 9/1 800 м
[Cu hum Cs]
+31.4 +23.9 64 +43 +43 опасность
перегрева
1007.2 1004.2 +20.2 +36.0
штиль 0 10 км мгла {туман} 3/1 750 м
[Sc Ac trans]
+26.1 +22.0 78 +34 +34 очень
душно
1010.1 1007.0
нст 1 10 км мгла {туман} 1/1 750 м
[Sc]
+23.6 +21.5 88 +30 +30 очень
душно
1010.2 1007.1 +20.2 +36.0
ЮЗ 2 10 км мгла {туман} 1/1 750 м
[Sc]
+22.6 +21.3 92 +30 +30 очень
душно
1009.4 1006.3
З 2 10 км мгла {туман} ясно +21.9 1011.0 1007.9 +20.9 +36.0
В 3 12 км мгла {туман} 8/1 960 м
[Cu hum Cs]
+35.3 +18.8 38 +40 +46 очень
душно
1009.7 1001.6
В 5 12 км 9/0 600 м
[Ac As Cs]
+30.2 +20.9 58 +42 +42 опасность
перегрева
1010.5 1007.4 +20.9 +35.3
С 2 10 км мгла {туман} 9/1 800 м
[Sc Cs]
+26.6 +22.4 78 +35 +35 очень
душно
1013.3 1010.3
штиль 0 10 км мгла {туман} 8/1 800 м
[Sc Cs]
+25.3 +23.6 90 +34 +34 очень
душно
1014.4 1011.4 +20.9 +35.3
ЮЗ 1 8000 м слаб. дождь 10/4 60 м
[Sc diur, vesp As op]
+22.7 +22.0 96 +31 +31 очень
душно
1016.2 1013.2 +22.7 +35.3 25 25.0
штиль 0 8000 м слаб. дождь 10/5 60 м
[Sc diur, vesp As op]
+22.8 +21.3 91 +30 +32 очень
душно
1019.3 1016.1 4
В 3 10 км осадки на расстоянии {туман} 10/5 660 м
[Sc diur, vesp As op]
+20.7 +18.9 89 +25 +25 комфорт 1020.9 1017.7 +22.7 +24.1 29.0
СВ 2 10 км осадки на расстоянии {туман} 10/10 150 м
[Sc diur, vesp Ac und Cs]
+20.2 +18.9 92 +24 +24 комфорт 1023.0 1019.9
ЮВ 3 5000 м слаб. дождь {туман} 10/10 90 м
[Sc diur, vesp Ac und Cs]
+19.1 +22.7 100 +21 +21 комфорт 1022.9 1019.8 +22.7 +24.1 0.4
ЮВ 2 5000 м слаб. дождь {туман} 10/8 120 м
[Sc As op]
+19.0 +19.0 100 +21 +21 комфорт 1021.4 1018.3 2
ЮВ 2 4000 м {дождь, снег} 10/10 60 м
[Sc diur, vesp Ac und Cs]
+24.1 +18.7 72 +21 +21 комфорт 1022.0 1018.9 +18.7 +24.1 4 6.7
Ю 2 7000 м слаб. дождь {туман} 10/9 60 м
[Sc As op]
+19.2 +19.2 100 +22 +22 комфорт 1024.2 1021.1 0.8
Местоположение метеостанции Сан-Педро-Сула (Гондурас): широта 15.45 долгота -87.93 высота над уровнем моря 31 м.
В архиве по умолчанию представлена погода в Сан-Педро-Суле за последнюю неделю. Архивные данные за месяц целиком и за предыдущие месяцы, начиная с января 2011 года, Вы можете получить, выбрав интересующий диапазон дат из раскрывающегося списка и нажав кнопку "Найти!".
*Определитесь, кто Вы:
Внимание! Время в таблицах - всемирное. Для получения местного времени необходимо прибавить поправку, которая равна -6 ч.
Смотрите также архив погоды в соседних городах и на ближайших метеорологических станциях:
Партнеры нашего сайта:      
Пояснения к столбцам:
  • Ветер - указаны скорость ветра в м/с - средняя за 10 мин, порывы в срок и между сроками (в фигурных скобках) и направление, откуда дует ветер: С - северный,
  • СВ - северо-восточный, В - восточный, ЮВ - юго-восточный, Ю - южный, ЮЗ - юго-западный, З - западный, СЗ - северо-западный.
  • Видимость - горизонтальная дальность видимости в метрах или километрах. При видимости от 1 до 10 км при отсутствии осадков обычно наблюдается дымка, при ухудшении видимости до 1 км и менее - туман. В сухую погоду видимость может ухудшаться дымом, пылью или мглою.
  • Явления - указаны атмосферные явления, наблюдавшиеся в срок или в последний час перед сроком; фигурными скобками обозначены явления, наблюдавшиеся между сроками (за 1-3 часа до срока); квадратными скобками обозначены град или гололедные отложения с указанием их диаметра в мм.
  • Облачность - указаны через наклонную черту общая и нижняя облачность в баллах и высота нижней границы облаков в метрах; квадратными скобками обозначены формы облаков: Ci - перистые, Cs - перисто-слоистые, Cc - перисто-кучевые, Ac - высококучевые, As - высокослоистые, Sc - слоисто-кучевые, Ns - слоисто-дождевые, Cu - кучевые, Cb - кучево-дождевые. Подробнее классификацию облаков см. в Атласе облаков (PDF).
  • T - Температура воздуха - температура, измеренная на высоте 2 м над землей.
  • Td - Температура точки росы - температура, при понижении до которой содержащийся в воздухе водяной пар достигнет насыщения.
  • f - Относительная влажность воздуха - влажноcть воздуха, измеренная на высоте 2 м над землей.
  • Te - Эффективная температура - температура, которую ощущает одетый по сезону человек в тени. Характеристика душности погоды. При расчете учитывается влияние влажности воздуха и скорости ветра на теплоощущения человека.
  • Tes - Эффективная температура на солнце - температура, которую ощущает человек, с поправкой на солнечный нагрев. Характеристика знойности погоды. Зависит от высоты солнца над горизонтом, облачности и скорости ветра. Ночью, в пасмурную погоду, а также при ветре 12 м/с и более поправка равна нулю.
  • P - Атмосферное давление - приведенное к уровню моря атмосферное давление.
  • Po - Атмосферное давление - измеренное на уровне метеостанции атмосферное давление.
  • Tmin - Минимальная температура - минимум температуры воздуха на высоте 2 м над землей.
  • Tmax - Максимальная температура - максимум температуры воздуха на высоте 2 м над землей.
  • R - Количество осадков - Количество выпавших осадков за период времени, мм. При наведении курсора мыши на число - период времени, за который выпало указанное количество осадков.
  • R24 - Количество осадков - Количество выпавших осадков за 24 часа, мм.
  • S - Снежный покров - Высота снежного покрова, см. При наведении курсора мыши на число - состояние снежного покрова и степень покрытия местности в баллах.